When you browse on this site, cookies collect data to enhance your experience and personalize the content and advertising you see.
Visit our Privacy Policy to learn more. By continuing to use the site, you agree to this use of cookies and data.
  • In Österreich
  • Länderverzeichnis
  • Für 7 Tage
  • Wassertemperatur
  • Wetterkarte
  • News
  • Widgets
  • user-avatar
    Anmelden

    Stündliche Wetter Lubango

    Heute, 12 Dezember, Donnerstag

    Zeit Temperatur Niederschläge Wind Luftdruck Luftfeuchtigkeit
    00:00 +15°C° 0 mm 1 m/S 608 mmHg 56%
    01:00 +15°C° 0 mm 1 m/S 608 mmHg 51%
    02:00 +15°C° 0 mm 1 m/S 607 mmHg 48%
    03:00 +15°C° 0 mm 1 m/S 607 mmHg 45%
    04:00 +15°C° 0 mm 1 m/S 607 mmHg 42%
    05:00 +16°C° 0 mm 1 m/S 608 mmHg 42%
    06:00 +18°C° 0 mm 1 m/S 608 mmHg 41%
    07:00 +20°C° 0 mm 1 m/S 610 mmHg 38%
    08:00 +22°C° 0 mm 1 m/S 610 mmHg 36%
    09:00 +24°C° 0 mm 1 m/S 611 mmHg 34%
    10:00 +26°C° 0 mm 2 m/S 611 mmHg 32%
    11:00 +26°C° 0 mm 2 m/S 611 mmHg 31%
    12:00 +27°C° 0 mm 2 m/S 611 mmHg 30%
    13:00 +28°C° 0 mm 2 m/S 610 mmHg 29%
    14:00 +27°C° 0 mm 2 m/S 610 mmHg 31%
    15:00 +27°C° 0 mm 2 m/S 609 mmHg 33%
    16:00 +26°C° 0 mm 2 m/S 608 mmHg 34%
    17:00 +24°C° 0 mm 2 m/S 608 mmHg 41%
    18:00 +20°C° 0 mm 2 m/S 608 mmHg 48%
    19:00 +18°C° 0 mm 2 m/S 607 mmHg 55%
    20:00 +19°C° 0 mm 1 m/S 608 mmHg 55%
    21:00 +18°C° 0 mm 1 m/S 608 mmHg 55%
    22:00 +16°C° 0 mm 0 m/S 608 mmHg 55%
    23:00 +18°C° 0 mm 1 m/S 608 mmHg 55%

    Morgen, 13 Dezember, Freitag

    Zeit Temperatur Niederschläge Wind Luftdruck Luftfeuchtigkeit
    00:00 +16°C° 0 mm 1 m/S 608 mmHg 55%
    01:00 +16°C° 0 mm 1 m/S 608 mmHg 55%
    02:00 +16°C° 0 mm 1 m/S 608 mmHg 54%
    03:00 +16°C° 0 mm 1 m/S 607 mmHg 52%
    04:00 +16°C° 0 mm 1 m/S 607 mmHg 51%
    05:00 +18°C° 0 mm 1 m/S 608 mmHg 49%
    06:00 +19°C° 0 mm 1 m/S 609 mmHg 47%
    07:00 +20°C° 0 mm 1 m/S 609 mmHg 45%
    08:00 +22°C° 0 mm 1 m/S 610 mmHg 40%
    09:00 +24°C° 0 mm 2 m/S 611 mmHg 35%
    10:00 +26°C° 0 mm 2 m/S 612 mmHg 30%
    11:00 +27°C° 0 mm 2 m/S 611 mmHg 28%
    12:00 +28°C° 0 mm 2 m/S 611 mmHg 27%
    13:00 +29°C° 0 mm 2 m/S 611 mmHg 26%
    14:00 +28°C° 0 mm 2 m/S 610 mmHg 29%
    15:00 +27°C° 0 mm 2 m/S 609 mmHg 32%
    16:00 +26°C° 0 mm 2 m/S 609 mmHg 35%
    17:00 +24°C° 0 mm 2 m/S 608 mmHg 42%
    18:00 +21°C° 0 mm 2 m/S 608 mmHg 50%
    19:00 +18°C° 0 mm 2 m/S 607 mmHg 57%
    20:00 +18°C° 0 mm 2 m/S 607 mmHg 58%
    21:00 +18°C° 0 mm 1 m/S 608 mmHg 58%
    22:00 +16°C° 0 mm 1 m/S 608 mmHg 58%
    23:00 +18°C° 0 mm 1 m/S 608 mmHg 52%

    übermorgen, 14 Dezember, Samstag

    Zeit Temperatur Niederschläge Wind Luftdruck Luftfeuchtigkeit
    00:00 +18°C° 0 mm 1 m/S 608 mmHg 46%
    01:00 +17°C° 0 mm 2 m/S 608 mmHg 40%
    02:00 +17°C° 0 mm 2 m/S 607 mmHg 39%
    03:00 +17°C° 0 mm 2 m/S 607 mmHg 38%
    04:00 +18°C° 0 mm 2 m/S 607 mmHg 37%
    05:00 +18°C° 0 mm 2 m/S 608 mmHg 38%
    06:00 +19°C° 0 mm 2 m/S 608 mmHg 39%
    07:00 +20°C° 0 mm 2 m/S 609 mmHg 40%
    08:00 +21°C° 0 mm 2 m/S 610 mmHg 37%
    09:00 +24°C° 0 mm 2 m/S 610 mmHg 34%
    10:00 +26°C° 0 mm 2 m/S 611 mmHg 30%
    11:00 +27°C° 0 mm 2 m/S 611 mmHg 29%
    12:00 +28°C° 0 mm 2 m/S 611 mmHg 28%
    13:00 +29°C° 0 mm 2 m/S 610 mmHg 27%
    14:00 +29°C° 0 mm 2 m/S 610 mmHg 30%
    15:00 +28°C° 0 mm 2 m/S 609 mmHg 32%
    16:00 +28°C° 0 mm 2 m/S 609 mmHg 34%
    17:00 +25°C° 0 mm 2 m/S 609 mmHg 47%
    18:00 +22°C° 0 mm 1 m/S 608 mmHg 60%
    19:00 +19°C° 0 mm 1 m/S 608 mmHg 72%
    20:00 +19°C° 0 mm 1 m/S 608 mmHg 78%
    21:00 +17°C° 0 mm 2 m/S 608 mmHg 84%
    22:00 +17°C° 0 mm 2 m/S 609 mmHg 89%
    23:00 +16°C° 0 mm 1 m/S 608 mmHg 88%

    15 Dezember, Sonntag

    Zeit Temperatur Niederschläge Wind Luftdruck Luftfeuchtigkeit
    00:00 +16°C° 0 mm 1 m/S 608 mmHg 87%
    01:00 +16°C° 0 mm 1 m/S 608 mmHg 86%
    02:00 +16°C° 0 mm 1 m/S 608 mmHg 81%
    03:00 +18°C° 0 mm 1 m/S 608 mmHg 76%
    04:00 +16°C° 0 mm 0 m/S 608 mmHg 71%
    05:00 +17°C° 0 mm 0 m/S 608 mmHg 70%
    06:00 +17°C° 0 mm 0 m/S 608 mmHg 69%
    07:00 +18°C° 0 mm 0 m/S 609 mmHg 68%
    08:00 +22°C° 0 mm 1 m/S 609 mmHg 60%
    09:00 +24°C° 0 mm 1 m/S 610 mmHg 53%
    10:00 +26°C° 0 mm 2 m/S 611 mmHg 45%
    11:00 +26°C° 0.3 mm 2 m/S 611 mmHg 44%
    12:00 +27°C° 0.3 mm 2 m/S 610 mmHg 42%
    13:00 +28°C° 0.3 mm 2 m/S 610 mmHg 41%
    14:00 +26°C° 0.8 mm 2 m/S 609 mmHg 49%
    15:00 +24°C° 0.8 mm 2 m/S 608 mmHg 58%
    16:00 +23°C° 0.8 mm 2 m/S 607 mmHg 66%
    17:00 +20°C° 0.9 mm 2 m/S 607 mmHg 74%
    18:00 +18°C° 0.9 mm 2 m/S 607 mmHg 83%
    19:00 +17°C° 0.9 mm 2 m/S 607 mmHg 91%
    20:00 +17°C° 1.2 mm 2 m/S 607 mmHg 91%
    21:00 +18°C° 1.2 mm 1 m/S 608 mmHg 92%
    22:00 +18°C° 1.2 mm 1 m/S 608 mmHg 92%
    23:00 +18°C° 0.1 mm 1 m/S 608 mmHg 88%

    16 Dezember, Montag

    Zeit Temperatur Niederschläge Wind Luftdruck Luftfeuchtigkeit
    00:00 +18°C° 0.1 mm 1 m/S 608 mmHg 85%
    01:00 +16°C° 0.1 mm 0 m/S 607 mmHg 82%
    02:00 +16°C° 0 mm 0 m/S 607 mmHg 82%
    03:00 +16°C° 0 mm 0 m/S 607 mmHg 83%
    04:00 +16°C° 0 mm 0 m/S 607 mmHg 83%
    05:00 +16°C° 0 mm 0 m/S 607 mmHg 81%
    06:00 +17°C° 0 mm 0 m/S 608 mmHg 78%
    07:00 +17°C° 0 mm 0 m/S 608 mmHg 76%
    08:00 +19°C° 0 mm 0 m/S 609 mmHg 68%
    09:00 +23°C° 0 mm 1 m/S 609 mmHg 60%
    10:00 +25°C° 0 mm 1 m/S 610 mmHg 52%
    11:00 +25°C° 1 mm 1 m/S 610 mmHg 53%
    12:00 +26°C° 1 mm 1 m/S 609 mmHg 53%
    13:00 +26°C° 1 mm 1 m/S 609 mmHg 53%
    14:00 +25°C° 1.2 mm 2 m/S 608 mmHg 59%
    15:00 +23°C° 1.2 mm 2 m/S 607 mmHg 65%
    16:00 +21°C° 1.2 mm 2 m/S 606 mmHg 72%
    17:00 +19°C° 1.3 mm 2 m/S 606 mmHg 78%
    18:00 +18°C° 1.3 mm 2 m/S 606 mmHg 84%
    19:00 +16°C° 1.3 mm 2 m/S 606 mmHg 90%
    20:00 +16°C° 0.1 mm 1 m/S 606 mmHg 90%
    21:00 +16°C° 0.1 mm 1 m/S 607 mmHg 91%
    22:00 +15°C° 0.1 mm 0 m/S 607 mmHg 92%
    23:00 +16°C° 0 mm 1 m/S 607 mmHg 90%

    17 Dezember, Dienstag

    Zeit Temperatur Niederschläge Wind Luftdruck Luftfeuchtigkeit
    00:00 +16°C° 0 mm 1 m/S 607 mmHg 89%
    01:00 +16°C° 0 mm 1 m/S 606 mmHg 87%
    02:00 +16°C° 0 mm 1 m/S 606 mmHg 86%
    03:00 +16°C° 0 mm 1 m/S 606 mmHg 85%
    04:00 +16°C° 0 mm 1 m/S 606 mmHg 84%
    05:00 +18°C° 0 mm 1 m/S 606 mmHg 82%
    06:00 +18°C° 0 mm 1 m/S 607 mmHg 80%
    07:00 +19°C° 0 mm 1 m/S 607 mmHg 78%
    08:00 +21°C° 0 mm 1 m/S 608 mmHg 69%
    09:00 +23°C° 0 mm 2 m/S 609 mmHg 60%
    10:00 +25°C° 0 mm 2 m/S 609 mmHg 51%
    11:00 +25°C° 0.4 mm 3 m/S 609 mmHg 51%
    12:00 +26°C° 0.4 mm 3 m/S 608 mmHg 51%
    13:00 +26°C° 0.4 mm 3 m/S 608 mmHg 51%
    14:00 +25°C° 0.6 mm 3 m/S 607 mmHg 54%
    15:00 +25°C° 0.6 mm 4 m/S 607 mmHg 57%
    16:00 +23°C° 0.6 mm 4 m/S 606 mmHg 60%
    17:00 +21°C° 0.1 mm 4 m/S 606 mmHg 68%
    18:00 +19°C° 0.1 mm 3 m/S 606 mmHg 76%
    19:00 +18°C° 0.1 mm 3 m/S 606 mmHg 85%
    20:00 +17°C° 0 mm 2 m/S 606 mmHg 86%
    21:00 +17°C° 0 mm 2 m/S 606 mmHg 87%
    22:00 +16°C° 0 mm 1 m/S 607 mmHg 88%
    23:00 +16°C° 0 mm 1 m/S 607 mmHg 85%
    Mehr zeigen